Probability
6 3 3 3 3 0 0 0 0 0 0 0 0 0 0 0 0 0 0 0 0 0 0 0 0 0 0 0 0 0 0 0 0 0 0 0 0 0 0 0 0 0 0
6 3 3 3 3 3 3 3 0 0 0 0 0 0 0 0 0 0 0 0 0 0 0 0 0 0 0 0 0 0 0 0 0 0 0 0 0 0 0 0 0 0 0
6 3 3 0 0 0 3 3 3 3 0 0 0 0 0 0 0 0 0 0 0 0 0 0 0 0 0 0 0 0 0 0 0 0 0 0 0 0 0 0 0 0 0
3 0 0 0 0 0 3 3 3 3 3 3 3 0 0 0 0 0 0 0 0 0 0 0 0 0 0 0 0 0 0 0 0 0 0 0 0 0 0 0 0 0 0
3 0 0 0 0 0 3 3 3 3 0 0 3 3 0 0 0 0 0 0 0 0 0 0 0 0 0 0 0 0 0 0 0 0 0 0 0 0 0 0 0 0 0
0 0 0 0 0 0 0 3 3 3 0 0 0 0 0 0 0 0 0 0 0 0 0 0 0 0 0 0 0 0 0 0 0 0 0 0 0 0 0 0 0 0 0
0 0 0 0 0 0 0 0 0 0 0 0 0 0 0 0 0 0 0 0 0 0 0 0 0 0 0 0 0 0 0 0 0 0 0 0 0 0 0 0 0 0 0
0 0 0 0 0 0 0 0 0 0 0 0 0 0 0 0 0 0 0 0 0 0 0 0 0 0 0 0 0 0 0 0 0 0 0 0 0 0 0 0 0 0 0
0 0 0 0 0 0 0 0 0 0 0 0 0 0 0 0 0 0 0 0 0 0 0 0 0 0 0 0 0 0 0 0 0 0 0 0 0 0 0 0 0 0 0
0 0 0 0 0 0 0 0 0 0 0 0 0 0 0 0 0 0 0 0 0 0 0 0 0 0 0 0 0 0 0 0 0 0 0 0 0 0 0 0 0 0 0
0 0 0 0 0 0 0 0 0 0 0 0 0 0 0 0 0 0 0 0 0 0 0 0 0 0 0 0 0 0 0 0 0 0 0 0 0 0 0 0 0 0 0
0 0 0 0 0 0 0 0 0 0 0 0 0 0 0 0 0 0 0 0 0 0 0 0 0 0 0 0 0 0 0 0 0 0 0 0 0 0 0 0 0 0 0
0 0 0 0 0 0 0 0 0 0 0 0 0 0 0 0 0 0 0 0 0 0 0 0 0 0 0 0 0 0 0 0 0 0 0 0 0 0 0 0 0 0 0
0 0 0 0 0 0 0 0 0 0 0 0 0 0 0 0 0 0 0 0 0 0 0 0 0 0 0 0 0 0 0 0 0 0 0 0 0 0 0 0 0 0 0
0 0 0 0 0 0 0 0 0 0 0 0 0 0 0 0 0 0 0 0 0 0 0 0 0 0 0 0 0 0 0 0 0 0 0 0 0 0 0 0 0 0 0
0 0 0 0 0 0 0 0 0 0 0 0 0 0 0 0 0 0 0 0 0 0 0 0 0 0 0 0 0 0 0 0 0 0 0 0 0 0 0 0 0 0 0
0 0 0 0 0 0 0 0 0 0 0 0 0 0 0 0 0 0 0 0 0 0 0 0 0 0 0 0 0 0 0 0 0 0 0 0 0 0 0 0 0 0 0
0 0 0 0 0 0 0 0 0 0 0 0 0 0 0 0 0 0 0 0 0 0 0 0 0 0 0 0 0 0 0 0 0 0 0 0 0 0 0 0 0 0 0
0 0 0 0 0 0 0 0 0 0 0 0 0 0 0 0 0 0 0 0 0 0 0 0 0 0 0 0 0 0 0 0 0 0 0 0 0 0 0 0 0 0 0
0 0 0 0 0 0 0 0 0 0 0 0 0 0 0 0 0 0 0 0 0 0 0 0 0 0 0 0 0 0 0 0 0 0 0 0 0 0 0 0 0 0 0
0 0 0 0 0 0 0 0 0 0 0 0 0 0 0 0 0 0 0 0 0 0 0 0 0 0 0 0 0 0 0 0 0 0 0 0 0 0 0 0 0 0 0
0 0 0 0 0 0 0 0 0 0 0 0 0 0 0 0 0 0 0 0 0 0 0 0 0 0 0 0 0 0 0 0 0 0 0 0 0 0 0 0 0 0 0
0 0 0 0 0 0 0 0 0 0 0 0 0 0 0 0 0 0 0 0 0 0 0 0 0 0 0 0 0 0 0 0 0 0 0 0 0 0 0 0 0 0 0
0 0 0 0 0 0 0 0 0 0 0 0 0 0 0 0 0 0 0 0 0 0 0 0 0 0 0 0 0 0 0 0 0 0 0 0 0 0 0 0 0 0 0
0 0 0 0 0 0 0 0 0 0 0 0 0 0 0 0 0 0 0 0 0 0 0 0 0 0 0 0 0 0 0 0 0 0 0 0 0 0 0 0 0 0 0
0 0 0 0 0 0 0 0 0 0 0 0 0 0 0 0 0 0 0 0 0 0 0 0 0 0 0 0 0 0 0 0 0 0 0 0 0 0 0 0 0 0 0
Height
5849 5849 5849 5849 5849 5848 5848 5847 5846 5845 5843 5842 5840 5837 5835 5832 5829 5826 5823 5820 5816 5813 5809 5806 5802 5799 5796 5793 5790 5787 5785 5784 5783 5781 5779 5778 5778 5779 5780 5781 5783 5785 5787
5845 5846 5846 5846 5845 5845 5844 5843 5842 5840 5839 5837 5834 5832 5829 5827 5823 5820 5817 5813 5810 5806 5802 5799 5795 5791 5787 5784 5781 5778 5775 5773 5772 5771 5769 5767 5767 5767 5768 5769 5771 5773 5775
5842 5842 5842 5842 5841 5840 5839 5838 5837 5835 5833 5831 5829 5826 5823 5820 5817 5814 5810 5806 5803 5799 5795 5791 5787 5783 5779 5775 5772 5768 5765 5763 5761 5760 5758 5757 5756 5755 5756 5757 5758 5760 5763
5838 5838 5837 5837 5836 5835 5834 5833 5831 5830 5828 5825 5823 5820 5817 5814 5810 5807 5803 5799 5795 5791 5787 5783 5778 5774 5770 5766 5762 5759 5756 5753 5751 5749 5748 5746 5745 5744 5744 5745 5746 5748 5750
5833 5833 5832 5831 5830 5829 5828 5827 5825 5823 5821 5819 5816 5813 5810 5807 5803 5800 5796 5791 5787 5783 5779 5774 5770 5765 5761 5757 5753 5750 5746 5743 5741 5739 5737 5735 5734 5732 5732 5733 5734 5735 5738
5827 5827 5826 5825 5824 5823 5822 5820 5818 5816 5814 5812 5808 5806 5803 5799 5796 5792 5787 5783 5779 5774 5770 5765 5761 5756 5752 5748 5744 5740 5736 5733 5730 5728 5726 5725 5723 5721 5721 5721 5722 5724 5726
5822 5821 5820 5819 5817 5816 5814 5813 5811 5809 5807 5804 5801 5798 5795 5791 5787 5783 5779 5774 5770 5766 5761 5756 5752 5747 5743 5738 5734 5730 5726 5723 5720 5718 5716 5713 5712 5710 5709 5710 5710 5711 5713
5815 5814 5812 5811 5810 5809 5807 5805 5803 5801 5798 5796 5792 5789 5786 5782 5778 5774 5769 5765 5761 5756 5751 5747 5742 5737 5733 5728 5724 5720 5716 5712 5709 5707 5705 5703 5700 5699 5698 5698 5698 5699 5701
5807 5806 5805 5803 5802 5800 5799 5796 5794 5792 5789 5786 5783 5780 5776 5772 5768 5764 5759 5755 5751 5746 5741 5736 5732 5727 5722 5718 5714 5710 5706 5702 5698 5695 5693 5691 5689 5687 5686 5686 5686 5687 5689
5799 5798 5797 5795 5793 5792 5790 5787 5785 5782 5779 5776 5773 5769 5766 5762 5758 5753 5749 5744 5740 5736 5731 5726 5721 5716 5712 5707 5703 5699 5695 5691 5687 5685 5682 5680 5678 5676 5675 5674 5674 5675 5676
5791 5790 5788 5786 5785 5783 5780 5778 5775 5772 5769 5766 5763 5759 5755 5751 5747 5742 5738 5733 5729 5724 5719 5714 5709 5705 5700 5696 5691 5688 5684 5680 5677 5674 5671 5668 5666 5664 5663 5662 5662 5662 5663
5783 5781 5779 5777 5775 5773 5770 5767 5764 5762 5758 5755 5751 5748 5744 5739 5735 5731 5726 5721 5717 5712 5708 5703 5697 5693 5688 5684 5680 5676 5672 5669 5666 5663 5660 5657 5655 5653 5651 5650 5650 5650 5650
5773 5771 5769 5767 5765 5762 5760 5757 5754 5750 5747 5743 5739 5736 5732 5728 5723 5718 5713 5708 5703 5699 5695 5690 5685 5680 5676 5672 5667 5663 5660 5657 5654 5651 5648 5646 5643 5641 5639 5638 5637 5637 5638
5763 5761 5759 5757 5754 5751 5749 5745 5742 5738 5735 5731 5727 5723 5719 5715 5710 5705 5700 5695 5690 5685 5681 5676 5672 5667 5663 5659 5655 5651 5647 5644 5642 5639 5637 5634 5632 5630 5628 5626 5625 5625 5626
5752 5750 5748 5746 5743 5740 5736 5733 5729 5726 5721 5718 5714 5709 5705 5702 5697 5691 5686 5681 5676 5671 5667 5663 5658 5654 5650 5646 5642 5639 5635 5632 5630 5627 5625 5623 5621 5619 5617 5615 5615 5614 5615
5741 5739 5736 5733 5730 5727 5724 5720 5716 5712 5708 5703 5699 5694 5690 5686 5681 5676 5671 5666 5661 5656 5652 5648 5644 5640 5636 5633 5629 5626 5623 5620 5618 5615 5614 5612 5610 5608 5606 5605 5604 5604 5604
5729 5727 5724 5720 5717 5713 5710 5706 5702 5698 5693 5688 5683 5679 5674 5670 5665 5660 5655 5651 5646 5641 5637 5633 5630 5626 5622 5619 5617 5614 5611 5608 5606 5604 5602 5600 5599 5597 5596 5594 5593 5593 5593
5717 5714 5710 5707 5703 5699 5695 5691 5687 5683 5679 5674 5669 5663 5658 5653 5648 5644 5639 5634 5630 5626 5621 5618 5615 5612 5609 5606 5604 5602 5599 5597 5594 5592 5591 5589 5588 5587 5585 5584 5583 5582 5582
5703 5700 5696 5692 5688 5684 5679 5675 5671 5666 5662 5657 5653 5647 5641 5636 5632 5626 5621 5617 5614 5610 5606 5603 5600 5598 5595 5594 5592 5590 5588 5586 5583 5581 5580 5579 5577 5576 5575 5574 5573 5573 5573
5689 5685 5681 5677 5672 5668 5663 5658 5654 5649 5644 5639 5634 5629 5624 5619 5614 5609 5604 5600 5597 5594 5591 5589 5586 5584 5583 5581 5579 5578 5576 5575 5573 5571 5570 5569 5568 5567 5566 5565 5564 5564 5564
5674 5670 5665 5660 5656 5651 5646 5641 5636 5631 5626 5621 5616 5611 5605 5601 5597 5593 5589 5585 5582 5579 5577 5575 5573 5572 5570 5569 5568 5567 5565 5564 5563 5561 5561 5560 5559 5558 5557 5556 5556 5555 5555
5658 5653 5649 5644 5639 5634 5628 5623 5618 5612 5607 5603 5598 5593 5587 5582 5579 5576 5573 5570 5567 5565 5563 5562 5560 5559 5558 5558 5557 5556 5555 5554 5553 5553 5552 5551 5550 5550 5549 5548 5548 5547 5547
5641 5636 5631 5626 5621 5616 5610 5605 5599 5594 5589 5584 5579 5575 5571 5567 5564 5561 5559 5557 5555 5553 5551 5550 5549 5549 5548 5548 5548 5547 5546 5545 5545 5544 5544 5543 5542 5542 5541 5541 5540 5540 5541
5624 5619 5614 5609 5603 5598 5593 5588 5582 5577 5572 5567 5563 5559 5556 5553 5551 5549 5547 5545 5544 5543 5541 5540 5540 5540 5540 5539 5539 5538 5538 5537 5537 5536 5536 5535 5535 5535 5534 5534 5534 5534 5534
5608 5603 5597 5592 5587 5582 5577 5572 5567 5562 5557 5553 5549 5546 5543 5540 5539 5537 5536 5535 5535 5534 5533 5533 5532 5532 5532 5532 5531 5531 5530 5530 5530 5529 5529 5528 5528 5528 5528 5527 5527 5527 5528
5592 5587 5582 5577 5572 5567 5562 5557 5553 5548 5544 5540 5537 5534 5532 5530 5529 5528 5527 5527 5527 5526 5526 5525 5525 5525 5525 5525 5525 5524 5524 5523 5523 5523 5522 5522 5522 5522 5522 5521 5521 5522 5522
Wind_Speed
8 8 7 7 8 8 9 11 12 13 15 17 18 20 22 23 25 26 26 26 27 28 29 30 31 31 31 31 31 31 31 31 32 34 36 38 38 39 39 41 42 42 43
9 9 9 10 11 12 12 13 15 16 17 19 21 22 23 25 26 27 28 28 29 30 31 32 32 32 33 33 33 33 32 32 32 32 35 37 39 40 40 40 42 43 44
11 11 12 13 13 14 15 16 17 19 20 21 23 24 26 27 28 29 30 30 31 32 33 33 34 34 34 34 33 33 33 33 32 32 34 36 38 40 40 41 41 43 44
13 14 14 15 16 16 17 18 20 21 23 24 26 27 28 29 30 31 32 32 33 33 34 35 35 35 35 34 34 34 34 34 34 34 34 35 36 38 40 41 41 43 44
16 16 17 17 18 19 20 21 23 24 26 27 28 29 30 31 32 34 34 34 35 35 36 36 36 37 36 35 35 34 35 35 35 35 34 34 35 37 39 40 40 42 43
19 19 19 20 21 22 23 24 26 27 28 29 30 31 32 33 34 35 35 36 36 36 37 38 38 38 37 36 36 36 36 36 36 35 35 35 35 37 38 39 39 40 41
21 21 22 23 24 24 25 27 28 29 30 31 33 34 34 35 36 36 37 37 37 38 39 38 38 38 38 37 37 37 37 37 36 36 35 35 36 37 37 38 38 39 39
23 24 24 25 26 27 28 29 30 32 33 34 35 36 36 37 37 38 38 39 39 40 40 40 39 39 39 38 38 37 37 37 37 36 36 36 36 37 37 37 38 39 39
25 26 27 27 28 29 31 32 33 35 36 37 37 38 38 39 39 39 40 40 41 41 42 41 40 39 40 39 38 38 38 38 37 37 36 36 36 37 37 37 38 38 39
27 27 28 29 30 32 33 35 36 37 38 39 40 40 41 41 41 41 42 42 43 43 43 43 42 41 41 40 40 39 38 38 38 37 36 36 37 37 37 37 38 38 39
29 30 31 32 33 34 36 37 38 39 41 42 43 43 43 43 43 44 44 45 45 45 44 44 44 43 42 41 40 40 39 38 38 37 37 36 36 37 37 37 38 38 38
31 32 33 34 36 37 38 40 41 42 43 43 44 44 45 45 46 46 46 47 47 46 46 46 45 44 43 42 42 41 40 39 38 37 37 36 36 36 37 37 37 37 37
32 34 36 37 38 39 40 42 43 44 45 45 46 46 46 47 48 48 49 49 50 49 48 47 46 45 44 44 43 42 40 39 38 37 36 35 36 36 36 36 36 36 36
35 36 38 40 40 41 43 44 45 46 47 47 47 48 49 49 50 51 51 51 52 51 50 49 48 46 45 44 43 41 40 39 38 36 35 34 35 35 35 35 34 34 34
37 39 40 41 42 44 45 46 47 48 49 49 50 51 51 51 52 53 53 53 53 52 51 50 48 47 46 44 42 40 39 38 36 35 35 34 34 34 33 33 33 33 33
40 41 42 43 45 46 48 49 49 50 51 53 53 54 54 54 54 54 55 54 53 53 52 50 48 47 45 43 41 39 38 38 37 36 34 34 34 33 33 33 32 32 32
42 43 44 46 47 49 50 51 52 52 54 55 55 56 56 56 56 56 56 55 54 54 52 50 48 46 44 41 39 38 38 37 37 35 34 33 33 32 32 31 31 31 31
44 46 47 49 50 51 53 54 54 55 55 55 56 57 57 57 58 58 57 56 55 53 52 50 47 44 42 40 39 37 36 36 35 33 32 32 31 31 30 30 30 29 29
46 48 50 51 53 54 55 56 57 57 58 58 58 58 59 59 59 59 58 56 53 51 49 47 44 42 40 39 37 36 35 34 33 32 31 30 30 29 28 28 28 28 28
49 51 52 53 54 56 57 58 58 59 59 59 60 60 60 60 58 57 55 53 51 48 46 44 41 39 37 36 35 35 34 33 32 30 29 29 28 27 27 27 27 27 26
51 52 53 54 56 57 58 59 59 60 60 60 60 60 60 58 56 54 51 49 47 45 43 40 38 35 34 34 33 32 31 30 29 28 27 26 26 26 25 25 25 25 25
53 54 56 57 58 59 59 60 60 60 60 60 59 58 56 54 51 48 46 44 43 40 38 36 34 33 32 31 30 28 28 28 27 26 25 25 24 24 24 23 23 23 23
55 56 57 58 58 58 58 58 58 58 58 57 56 53 50 47 45 42 40 38 36 34 33 31 29 28 27 27 27 26 26 25 25 25 24 24 23 22 22 22 22 21 21
55 56 56 56 56 56 56 55 55 54 53 52 49 46 43 41 39 37 34 32 31 29 27 26 25 24 24 24 23 23 23 22 23 23 22 22 21 20 20 20 20 20 21
54 54 54 53 53 53 52 51 50 49 47 45 42 39 37 36 34 32 29 27 26 25 23 23 22 21 20 21 21 21 21 21 20 20 20 19 19 20 20 19 19 19 19
51 51 50 50 49 48 47 46 44 43 42 39 37 35 33 30 28 26 24 23 22 21 20 20 19 19 19 20 19 19 19 19 19 18 18 18 18 18 18 18 18 18 18
Wind_Direction
234 241 249 261 271 279 288 296 301 305 309 312 315 317 319 320 320 319 320 319 319 318 317 315 314 311 308 305 301 297 292 287 281 277 274 272 269 265 261 257 255 253 251
243 251 261 268 274 280 287 293 298 302 306 308 311 314 315 317 318 318 318 317 316 316 315 314 313 312 310 306 303 300 296 291 286 280 276 273 270 267 264 260 256 254 252
252 260 268 273 276 282 288 293 296 301 304 307 309 311 313 315 317 317 316 315 315 315 315 314 313 312 310 308 305 302 298 294 290 284 279 275 271 268 265 262 258 255 252
259 264 269 273 278 283 288 292 296 299 302 305 307 309 311 313 314 315 315 315 314 314 314 314 313 312 311 308 306 303 300 296 293 289 285 279 274 270 267 264 261 258 255
264 267 271 274 278 283 288 292 295 298 301 303 305 307 309 311 311 312 314 313 313 314 313 313 313 312 311 308 306 304 301 297 294 291 288 283 278 273 269 266 263 260 257
268 270 274 277 280 285 288 291 294 296 299 302 304 306 308 310 311 312 313 312 312 313 313 312 311 311 309 307 305 303 301 298 295 292 289 285 280 276 272 269 265 262 258
271 273 274 277 281 285 288 291 293 295 298 301 303 305 307 308 309 311 311 311 311 312 312 311 310 309 308 307 305 303 301 298 296 292 290 286 281 278 274 271 267 263 259
273 275 276 278 282 286 289 291 293 295 297 300 303 304 305 307 308 309 310 310 311 311 310 310 309 308 308 306 305 303 301 298 296 293 289 286 282 278 275 272 268 264 260
276 278 278 281 285 288 290 292 294 296 298 300 302 303 304 306 307 308 308 309 310 310 309 309 308 307 307 306 304 302 300 298 296 293 289 286 282 278 275 273 269 265 261
277 280 282 285 287 289 290 292 293 295 298 300 301 302 303 305 306 306 307 308 308 308 308 308 307 306 305 304 303 302 299 297 295 293 290 286 282 279 276 274 270 266 261
278 281 282 284 286 288 290 292 294 297 298 299 300 300 301 303 304 305 305 306 306 307 307 306 305 304 303 302 302 301 298 296 294 292 290 287 284 281 278 275 271 267 262
278 281 283 285 287 289 290 292 293 295 296 297 298 299 300 301 302 303 303 304 304 305 305 305 304 302 301 301 300 299 297 294 292 291 289 286 283 281 279 276 273 268 262
280 281 284 286 288 289 290 292 293 294 296 296 296 297 298 300 301 301 301 302 303 304 304 303 302 301 300 299 298 298 296 294 291 289 287 285 282 281 280 277 273 268 263
282 283 285 287 288 289 290 291 293 294 294 296 296 296 298 299 299 300 300 301 301 302 302 302 301 299 297 297 296 296 294 293 291 288 286 284 282 281 279 276 272 268 264
282 284 285 286 288 289 291 292 293 294 294 295 296 296 297 297 297 298 299 299 299 299 300 300 299 297 296 295 294 294 293 292 289 287 285 284 283 281 278 276 272 269 265
283 284 286 287 287 289 290 291 292 294 294 295 295 296 296 296 296 297 297 298 298 297 298 298 297 295 293 292 292 291 291 291 288 286 283 283 282 281 278 276 273 269 266
285 285 286 287 287 289 291 291 292 293 293 294 294 295 295 296 296 296 296 296 296 296 296 295 294 292 291 290 289 289 289 289 287 284 283 282 281 280 278 275 273 270 266
286 286 287 288 289 290 291 291 292 292 292 293 293 294 294 295 295 295 295 294 294 294 294 293 292 290 288 287 287 286 288 288 286 284 282 281 280 278 277 274 272 270 266
287 288 288 289 290 290 290 291 291 291 292 292 292 293 293 294 294 294 293 293 293 292 292 291 290 288 286 285 284 285 286 287 286 283 281 280 279 277 275 274 272 269 266
288 288 289 290 289 290 290 291 291 291 291 292 292 293 293 293 293 292 292 292 291 291 290 289 288 286 283 282 282 283 284 285 285 282 279 279 277 276 275 274 272 269 266
290 290 290 291 290 291 291 291 291 291 292 292 293 293 293 293 292 291 290 290 290 289 288 287 284 282 281 282 281 282 283 283 283 280 278 277 276 276 275 274 271 267 264
291 291 291 291 291 291 292 292 292 292 293 293 293 293 293 293 292 291 290 289 289 287 286 284 280 279 280 279 279 280 281 281 279 278 277 275 274 275 274 272 269 265 262
292 292 292 292 292 293 293 293 293 293 294 294 294 293 292 291 291 290 289 288 287 287 285 282 280 278 276 278 279 280 280 278 276 274 274 273 272 273 272 271 267 262 259
293 294 294 294 294 294 294 294 295 295 295 295 294 293 291 290 289 288 287 286 285 285 282 280 279 278 276 278 279 279 278 276 274 273 272 271 271 271 271 270 266 261 256
295 295 295 295 295 296 296 296 296 296 296 296 295 293 291 290 287 285 284 284 283 281 280 280 280 279 278 278 277 277 276 275 274 274 272 270 270 271 271 268 265 261 255
296 296 297 297 297 298 298 299 298 298 298 296 294 293 291 288 286 283 280 280 281 280 279 278 275 276 277 277 276 276 278 276 274 274 270 269 269 271 272 269 263 257 253